OBJECT F, 59778

Orbit data source: Space-Track

You're viewing an Uncataloged Satellite

Recently launched and/or uncataloged satellites may have evolving metadata. Metadata may include but not limited to: Owner, Maufacturer, Bus, Motor, and Mission.

OBJECT F, 59778 is a satellite owned by Sitronics (CIS) in SSO that was launched on Thu, 16 May 2024 UTC via a SOYUZ-2-1B launch vehicle from the Plesetsk Missile And Space Complex (PKMTR). Unknown objects in Earth's orbit typically refer to objects detected orbiting the Earth but have not yet been identified or cataloged. These objects could be anything from previously untracked satellites, spent rocket stages, debris from satellite collisions, or even natural meteoroids temporarily captured by Earth's gravity.

Loading next visibility...
Identifier
59778, 2024-092F
Orbit
SSO
Last TLE update
13 hours ago
Origin
Manufacturer
Sputniks
Mission
Operational spacecraft
Bus & Motor
CUBESAT 3U?, Unknown motor
Mass
3 kg wet, 3 kg dry
Launch date (UTC)
2024-05-16 (1 year ago)
Launch vehicle
SOYUZ-2-1B
Launch site
Plesetsk Missile And Space Complex (PKMTR)
Object type
Unknown
Shape & HBR
Unknown
Radar Cross Section
Small (<0.1 m²)

Expand to show TLE details & history

TLE from 13 hours ago
0 OBJECT F
1 59778U 24092F   25181.87498634  .00009087  00000-0  38777-3 0  9998
2 59778  97.6233 300.4376 0008804 312.9363  47.1134 15.23110520 62051
Epoch: 2025-06-30T20:59Z
TLE epoch observation values (Epoch: 2025-06-30T20:59:58.819Z)
Latitude
-0.00003°
Longitude
66.264°
Altitude
495.436 km
Speed
7.619 km/s
True Right ascension
20h 01m 45s
True Declination
0° 00' 00"
Sunlit
Object was in full shadow at epoch
Visualization orbit readout
Latitude
82.12865°
Longitude
-38.86655°
Altitude
514.666 km
Speed
7.611 km/s
Apparent Right ascension
10h 09m 36s
Apparent Declination
26° 14' 19"
Sunlit
Object is in daylight
Visualization observer readout
Local Sidereal Time
21:39:22
Azimuth
352.607° N
Elevation
-23.471°
Doppler factor
1
Orbital elements
Apogee altitude
499.486 km
Perigee altitude
487.386 km
Semi-major axis
6,871.573 km
Eccentricity
0.00088
Inclination
97.6233°
RAAN
300.4376°
Arg. of periapsis
312.9363°
True anomaly
Unknown
Mean anomaly
47.1134°
Eccentric anomaly
Unknown
Mean motion
3.8103 °/min
Orbital period
94.48 mins
BSTAR
0.00038777
Loading maneuver chart data...
Loading SW <> Apogee altitude chart data...
Loading historical data...
Loading historical data...
Loading historical data...
Loading historical data...
Loading historical data...
Loading historical data...
Loading historical data...

OBJECT F Visibility forecast

Observer location: undefined°, undefined°

Span
Click to sort rows by Start time (UTC) header in descending order
Start Az.
Max El. time (UTC)
Max El. Az.
Max El.
End time (UTC)
End Az.
5 mins2025-07-01 21:12:59.279Z350.516° N2025-07-01 21:14:59.279Z306.267° NW32.571°2025-07-01 21:17:59.279Z221.327° SW
5 mins2025-07-02 07:49:59.279Z153.937° SSE2025-07-02 07:51:59.279Z63.485° ENE43.065°2025-07-02 07:54:59.279Z353.723° N
|